TimeAKST,TemperatureF,Dew PointF,Humidity,Sea Level PressureIn,VisibilityMPH,Wind Direction,Wind SpeedMPH,Gust SpeedMPH,PrecipitationIn,Events,Conditions,WindDirDegrees,DateUTC
12:53 AM,42.1,39.9,92,29.96,6.0,SSE,17.3,36.8,0.23,Rain,Rain,150,2013-01-02 09:53:00
1:21 AM,41.0,41.0,100,29.96,7.0,SSE,13.8,26.5,0.06,Rain,Rain,150,2013-01-02 10:21:00
1:39 AM,42.8,42.8,100,29.96,7.0,SE,16.1,-,0.13,Rain,Light Rain,140,2013-01-02 10:39:00
1:53 AM,42.1,42.1,100,29.96,7.0,SE,18.4,34.5,0.16,Rain,Rain,140,2013-01-02 10:53:00
2:35 AM,42.8,42.8,100,29.94,6.0,SE,23.0,29.9,0.08,Rain,Light Rain,140,2013-01-02 11:35:00
3:07 AM,42.8,42.8,100,29.93,5.0,SSE,13.8,26.5,0.03,Rain,Light Rain,160,2013-01-02 12:07:00
3:53 AM,42.1,42.1,100,29.91,4.0,SE,23.0,29.9,0.19,Rain,Rain,140,2013-01-02 12:53:00
4:07 AM,41.0,41.0,100,29.91,6.0,SSE,19.6,32.2,0.07,Rain,Rain,150,2013-01-02 13:07:00
4:37 AM,41.0,41.0,100,29.89,7.0,SSE,16.1,28.8,0.15,Rain,Light Rain,150,2013-01-02 13:37:00
4:53 AM,41.0,41.0,100,29.90,7.0,SSE,12.7,23.0,0.20,Rain,Light Rain,150,2013-01-02 13:53:00
5:01 AM,41.0,41.0,100,29.89,7.0,SSE,15.0,23.0,0.02,Rain,Rain,150,2013-01-02 14:01:00
5:27 AM,42.8,42.8,100,29.90,6.0,SE,17.3,29.9,0.09,Rain,Rain,140,2013-01-02 14:27:00
5:33 AM,42.8,42.8,100,29.89,7.0,SE,17.3,27.6,0.11,Rain,Light Rain,140,2013-01-02 14:33:00
5:44 AM,42.8,42.8,100,29.89,7.0,SE,17.3,23.0,0.13,Rain,Rain,140,2013-01-02 14:44:00
5:53 AM,42.1,42.1,100,29.89,7.0,SE,19.6,25.3,0.15,Rain,Rain,140,2013-01-02 14:53:00
6:11 AM,42.8,41.0,93,29.88,8.0,ESE,28.8,34.5,N/A,Rain,Light Rain,120,2013-01-02 15:11:00
6:53 AM,42.8,41.0,93,29.89,6.0,SE,17.3,34.5,N/A,Rain,Rain,140,2013-01-02 15:53:00
7:53 AM,41.0,39.9,96,29.87,6.0,SE,21.9,31.1,0.15,Rain,Rain,130,2013-01-02 16:53:00
8:53 AM,39.9,39.0,97,29.87,7.0,SE,20.7,26.5,0.23,Rain,Rain,140,2013-01-02 17:53:00
9:53 AM,39.0,37.9,96,29.88,7.0,SE,16.1,25.3,0.14,Rain,Light Rain,140,2013-01-02 18:53:00
10:53 AM,39.9,39.0,97,29.87,3.0,SE,17.3,32.2,0.19,Rain,Rain,140,2013-01-02 19:53:00
11:53 AM,39.9,37.9,93,29.85,6.0,SE,23.0,29.9,0.26,Rain,Rain,130,2013-01-02 20:53:00
12:53 PM,39.9,39.0,97,29.84,4.0,SE,21.9,29.9,0.23,Rain,Rain,140,2013-01-02 21:53:00
1:53 PM,39.9,37.9,93,29.83,6.0,SE,26.5,34.5,0.30,Rain,Rain,130,2013-01-02 22:53:00
2:53 PM,39.9,39.9,100,29.84,3.0,SE,18.4,28.8,0.29,Rain,Heavy Rain,140,2013-01-02 23:53:00
3:53 PM,41.0,39.0,93,29.86,4.0,SSE,11.5,23.0,0.29,Rain,Heavy Rain,150,2013-01-03 00:53:00
4:53 PM,37.0,36.0,96,29.89,4.0,NNW,16.1,20.7,0.26,Rain,Heavy Rain,330,2013-01-03 01:53:00
5:53 PM,35.1,35.1,100,29.91,8.0,WNW,8.1,-,0.11,Rain,Light Rain,300,2013-01-03 02:53:00
6:53 PM,37.9,37.0,97,29.92,10.0,Variable,3.5,-,0.01,,Overcast,0,2013-01-03 03:53:00
7:53 PM,36.0,36.0,100,29.95,10.0,Calm,Calm,-,N/A,,Scattered Clouds,0,2013-01-03 04:53:00
8:32 PM,33.8,33.8,100,29.96,10.0,WNW,5.8,-,N/A,,Partly Cloudy,300,2013-01-03 05:32:00
8:48 PM,35.6,35.6,100,29.96,10.0,NW,6.9,-,N/A,,Mostly Cloudy,310,2013-01-03 05:48:00
8:53 PM,35.1,35.1,100,29.97,10.0,WNW,6.9,-,N/A,,Mostly Cloudy,300,2013-01-03 05:53:00
9:10 PM,35.6,35.6,100,29.97,10.0,NW,6.9,-,N/A,,Overcast,320,2013-01-03 06:10:00
9:33 PM,35.6,35.6,100,29.98,10.0,NW,6.9,-,N/A,,Overcast,320,2013-01-03 06:33:00
9:53 PM,36.0,36.0,100,29.99,10.0,NW,9.2,-,N/A,,Overcast,310,2013-01-03 06:53:00
10:10 PM,35.6,35.6,100,29.98,10.0,WNW,6.9,-,N/A,,Overcast,300,2013-01-03 07:10:00
10:53 PM,36.0,36.0,100,30.00,10.0,NW,6.9,-,N/A,,Overcast,310,2013-01-03 07:53:00
11:53 PM,36.0,36.0,100,30.01,10.0,NNW,5.8,-,N/A,,Overcast,330,2013-01-03 08:53:00